* Astronomy

Members Login
Post Info TOPIC: ATLAS 3A CENTAUR rocket body re-entry


L

Posts: 131433
Date:
RE: ATLAS 3A CENTAUR rocket body re-entry
Permalink  
 


Update
The ATLAS 3A CENTAUR rocket body re-entered the Earths atmosphere on the 1st July, 2011 @ 15:59 GMT  ± 2 hours.

Inclination: 24.62°
Revolution Number: 9910
Predicted Location:  11.2°N, 101.8°E



__________________


L

Posts: 131433
Date:
Permalink  
 

Update
The ATLAS 3A CENTAUR rocket body is predicted to re-enter the Earths atmosphere on the 1st July, 2011 @ 16:00 GMT  ± 2 hours.

ATLAS 3A CENTAUR RB
1 28185U 04007B 11176.81516920 .08850081 -81296-5 52052-3 0 1365
2 28185 024.6497 270.8820 1250319 313.1282 217.4217 13.56741260 98237

Period:       95.89 minutes
Inclination: 24.62°
Apogee:     1006 km
Perigee:     118 km
Revolution Number: 9910
Predicted Location:  13.8°N, 108.1°E



__________________


L

Posts: 131433
Date:
Permalink  
 

Update
The ATLAS 3A CENTAUR rocket body is predicted to re-enter the Earths atmosphere on the 1st July, 2011 @ 16:01 GMT  ± 3 hours.

ATLAS3ACENTAURRB.gif
Expand (26kb, 857 x 564)

ATLAS 3A CENTAUR RB
1 28185U 04007B 11175.53019318 .08130364 -80457-5 53758-3 0 1291
2 28185 024.6552 277.8337 1344154 301.0672 113.6367 13.34590200 98065

Period:       100.71 minutes
Inclination: 24.64°
Apogee:     1465 km
Perigee:     120 km
Revolution Number: 9909
Predicted Location:  14°N, 108.6°E



__________________


L

Posts: 131433
Date:
Permalink  
 

Update
The ATLAS 3A CENTAUR rocket body is predicted to re-enter the Earths atmosphere on the 1st July, 2011 @ 20:14 GMT  ± 15 hours.

ATLAS 3A CENTAUR RB
1 28185U 04007B 11174.17407094 .06384883 -79799-5 36755-3 0 1225
2 28185 024.6512 284.9250 1439996 288.9050 130.1164 13.13549281 97884

Period:       100.71 minutes
Inclination: 24.64°
Apogee:     1465 km
Perigee:     120 km
Revolution Number: 9910
Predicted Location:  17.5°S, 327.2°E



__________________


L

Posts: 131433
Date:
Permalink  
 

Update
An ATLAS 3A CENTAUR rocket body is predicted to re-enter the Earths atmosphere on the 1st July, 2011 @ 09:30 GMT  ± 24 hours.

ATLAS 3A CENTAUR RB
1 28185U 04007B 11181.31546075 .25290044 -89305-5 11546-2 0 1525
2 28185 024.6192 243.8611 0670501 359.4431 087.5980 14.92981550 98876

Period:       100.71 minutes
Inclination: 24.64°
Apogee:     1465 km
Perigee:     120 km
Revolution Number: 9906
Predicted Location:  14.9°N, 210.8°E
Size:          9 metres



__________________


L

Posts: 131433
Date:
Permalink  
 

An ATLAS 3A CENTAUR rocket body that was launched on the 13th March, 2004, from the Cape Canaveral Air Force Station, for the MBSat 1 (Mobile Broadcasting Satellite) mission is predicted to re-enter the Earths atmosphere on the 1st July, 2011 @ --:-- GMT  ± -- hours.

ATLAS 3A CENTAUR RB
1 28185U 04007B 11179.75674177 +.17284004 -83971-5 +79811-3 0 01461
2 28185 024.6283 253.8820 0936946 342.3804 180.9674 14.30623938098641

Period:       100.71 minutes
Inclination: 24.64°
Apogee:     1465 km
Perigee:     120 km
Revolution Number: -
Predicted Location:  -
Size:          9 metres



__________________
Page 1 of 1  sorted by
 
Quick Reply

Please log in to post quick replies.



Create your own FREE Forum
Report Abuse
Powered by ActiveBoard